Location: *
(32.3758°S, 63.1185°E)
Time: 23:37:53
(UTC+00:00)

Cosmos 2219 - Pass Details

Date: 02 June 2023
Orbit: 835 x 858 km, 71.1° (Epoch: 03 October)

Event Time Altitude Azimuth Distance (km) Brightness Sun altitude
Rises 14:17:36 0° 328° (NNW) 3,408 7.1 -18.1°
Reaches altitude 10° 14:20:07 10° 323° (NW) 2,476 6.4 -18.7°
Maximum altitude 14:25:38 52° 247° (WSW) 1,059 4.0 -19.8°
Drops below altitude 10° 14:31:12 10° 171° (S) 2,488 5.4 -20.9°
Enters shadow 14:31:34 - 170° (S) 2,620 5.5 -21.0°
